TimeEDT,TemperatureF,Dew PointF,Humidity,Sea Level PressureIn,VisibilityMPH,Wind Direction,Wind SpeedMPH,Gust SpeedMPH,PrecipitationIn,Events,Conditions,WindDirDegrees,DateUTC
12:15 AM,42.3,41.0,95,30.20,1.0,Calm,Calm,-,N/A,,Overcast,0,2012-10-08 04:15:00
12:35 AM,42.3,41.2,96,30.20,2.0,Calm,Calm,-,N/A,,Overcast,0,2012-10-08 04:35:00
12:55 AM,41.9,40.6,95,30.20,0.2,Calm,Calm,-,N/A,Fog,Fog,0,2012-10-08 04:55:00
1:15 AM,40.3,39.2,96,30.20,0.2,Calm,Calm,-,N/A,Fog,Fog,0,2012-10-08 05:15:00
1:35 AM,40.3,39.2,96,30.20,0.2,Calm,Calm,-,N/A,Fog,Fog,0,2012-10-08 05:35:00
1:55 AM,39.9,38.7,95,30.21,0.2,Calm,Calm,-,N/A,Fog,Fog,0,2012-10-08 05:55:00
2:15 AM,40.5,39.4,96,30.21,0.5,Calm,Calm,-,N/A,Fog,Fog,0,2012-10-08 06:15:00
2:35 AM,40.3,39.2,96,30.21,0.5,Calm,Calm,-,N/A,Fog,Fog,0,2012-10-08 06:35:00
2:55 AM,39.4,38.3,96,30.21,0.2,Calm,Calm,-,N/A,Fog,Fog,0,2012-10-08 06:55:00
3:15 AM,40.1,39.0,96,30.20,0.2,Calm,Calm,-,N/A,Fog,Fog,0,2012-10-08 07:15:00
3:35 AM,41.0,39.7,95,30.21,0.2,Calm,Calm,-,N/A,Fog,Fog,0,2012-10-08 07:35:00
3:55 AM,41.0,39.7,95,30.21,0.2,Calm,Calm,-,N/A,Fog,Fog,0,2012-10-08 07:55:00
4:15 AM,40.8,39.6,95,30.22,0.2,Calm,Calm,-,N/A,Fog,Fog,0,2012-10-08 08:15:00
4:35 AM,41.0,39.9,96,30.23,0.2,Calm,Calm,-,N/A,Fog,Fog,0,2012-10-08 08:35:00
4:55 AM,41.0,39.7,95,30.24,0.5,Calm,Calm,-,N/A,Fog,Fog,0,2012-10-08 08:55:00
5:15 AM,40.6,39.6,96,30.24,0.8,Calm,Calm,-,N/A,,Overcast,0,2012-10-08 09:15:00
5:35 AM,40.6,39.6,96,30.24,5.0,Calm,Calm,-,N/A,,Scattered Clouds,0,2012-10-08 09:35:00
5:55 AM,40.3,39.2,96,30.24,5.0,Calm,Calm,-,N/A,,Scattered Clouds,0,2012-10-08 09:55:00
6:35 AM,40.8,39.6,95,30.24,7.0,Calm,Calm,-,N/A,,Mostly Cloudy,0,2012-10-08 10:35:00
6:55 AM,41.2,40.1,96,30.25,7.0,Calm,Calm,-,N/A,,Mostly Cloudy,0,2012-10-08 10:55:00
7:15 AM,41.0,40.1,97,30.25,5.0,Calm,Calm,-,N/A,,Mostly Cloudy,0,2012-10-08 11:15:00
7:35 AM,41.2,40.1,96,30.26,3.0,South,3.5,-,N/A,,Mostly Cloudy,170,2012-10-08 11:35:00
7:55 AM,41.4,40.5,97,30.26,4.0,Calm,Calm,-,N/A,,Overcast,0,2012-10-08 11:55:00
8:15 AM,41.9,40.6,95,30.27,5.0,SW,3.5,-,N/A,,Overcast,220,2012-10-08 12:15:00
8:35 AM,41.9,40.6,95,30.27,5.0,Calm,Calm,-,N/A,,Overcast,0,2012-10-08 12:35:00
8:55 AM,42.3,41.2,96,30.27,5.0,Calm,Calm,-,N/A,,Overcast,0,2012-10-08 12:55:00
9:15 AM,42.8,41.7,96,30.28,10.0,Calm,Calm,-,N/A,,Overcast,0,2012-10-08 13:15:00
9:35 AM,43.0,41.9,96,30.26,7.0,Calm,Calm,-,N/A,,Overcast,0,2012-10-08 13:35:00
9:55 AM,43.3,42.4,97,30.28,7.0,Calm,Calm,-,N/A,,Overcast,0,2012-10-08 13:55:00
10:15 AM,44.2,43.2,96,30.30,10.0,WSW,3.5,-,N/A,,Mostly Cloudy,250,2012-10-08 14:15:00
10:35 AM,44.6,43.7,97,30.29,7.0,Calm,Calm,-,N/A,,Overcast,0,2012-10-08 14:35:00
10:55 AM,46.4,42.8,87,30.29,10.0,WNW,3.5,-,N/A,,Overcast,290,2012-10-08 14:55:00
11:15 AM,48.4,41.4,77,30.30,10.0,Calm,Calm,-,N/A,,Overcast,0,2012-10-08 15:15:00
11:35 AM,48.4,39.9,73,30.28,10.0,NNE,4.6,-,N/A,,Overcast,30,2012-10-08 15:35:00
11:55 AM,48.4,38.7,69,30.29,10.0,Calm,Calm,-,N/A,,Overcast,0,2012-10-08 15:55:00
12:15 PM,48.7,40.5,73,30.28,10.0,North,3.5,-,N/A,,Overcast,10,2012-10-08 16:15:00
12:35 PM,48.9,39.9,71,30.28,10.0,NNW,4.6,-,N/A,Rain,Light Rain,330,2012-10-08 16:35:00
12:55 PM,48.7,39.7,71,30.28,10.0,NW,4.6,-,N/A,,Light Drizzle,320,2012-10-08 16:55:00
1:15 PM,48.4,39.2,71,30.28,10.0,North,4.6,-,N/A,,Light Drizzle,350,2012-10-08 17:15:00
1:35 PM,49.1,38.7,67,30.28,10.0,North,3.5,-,N/A,,Overcast,360,2012-10-08 17:35:00
1:55 PM,48.7,39.7,71,30.27,10.0,NE,4.6,-,N/A,,Overcast,40,2012-10-08 17:55:00
2:15 PM,48.7,39.7,71,30.28,10.0,North,4.6,-,N/A,Rain,Light Rain,10,2012-10-08 18:15:00
2:35 PM,49.1,40.1,71,30.27,10.0,NNE,4.6,-,N/A,,Overcast,20,2012-10-08 18:35:00
2:55 PM,48.7,41.7,77,30.26,10.0,NNE,4.6,-,N/A,Rain,Rain,20,2012-10-08 18:55:00
3:15 PM,48.6,41.7,77,30.25,10.0,NNE,6.9,-,N/A,,Overcast,30,2012-10-08 19:15:00
3:35 PM,48.9,42.1,77,30.25,10.0,NNE,6.9,-,N/A,,Overcast,30,2012-10-08 19:35:00
3:55 PM,48.2,41.2,77,30.24,10.0,NE,5.8,-,N/A,,Overcast,40,2012-10-08 19:55:00
4:15 PM,48.2,41.0,76,30.23,10.0,NNE,6.9,-,N/A,,Overcast,30,2012-10-08 20:15:00
4:35 PM,48.0,41.5,78,30.24,10.0,NNW,8.1,-,N/A,Rain,Light Rain,340,2012-10-08 20:35:00
4:55 PM,46.9,42.1,83,30.23,10.0,North,5.8,-,0.01,Rain,Rain,10,2012-10-08 20:55:00
5:15 PM,46.4,42.1,85,30.24,10.0,North,4.6,-,N/A,,Drizzle,10,2012-10-08 21:15:00
5:35 PM,46.4,42.3,85,30.25,7.0,NNE,5.8,-,0.01,Rain,Light Rain,20,2012-10-08 21:35:00
5:55 PM,45.5,41.9,87,30.23,10.0,NNE,8.1,-,0.02,Rain,Rain,30,2012-10-08 21:55:00
6:15 PM,45.1,41.5,87,30.24,10.0,North,5.8,-,N/A,,Overcast,350,2012-10-08 22:15:00
6:35 PM,45.0,41.9,89,30.23,10.0,North,5.8,-,N/A,Rain,Rain,10,2012-10-08 22:35:00
6:55 PM,44.8,41.9,90,30.23,10.0,North,4.6,-,N/A,,Drizzle,10,2012-10-08 22:55:00
7:15 PM,44.6,41.5,89,30.23,10.0,North,4.6,-,N/A,,Light Drizzle,10,2012-10-08 23:15:00
7:35 PM,44.6,41.5,89,30.23,10.0,NNE,5.8,-,N/A,,Light Drizzle,20,2012-10-08 23:35:00
7:55 PM,44.2,41.4,90,30.23,10.0,NNE,5.8,-,N/A,,Drizzle,20,2012-10-08 23:55:00
8:15 PM,44.2,41.4,90,30.23,10.0,North,4.6,-,N/A,Rain,Rain,10,2012-10-09 00:15:00
8:35 PM,44.2,41.5,90,30.23,10.0,NNE,5.8,-,N/A,,Drizzle,30,2012-10-09 00:35:00
8:55 PM,44.2,41.7,91,30.24,7.0,NNE,3.5,-,0.01,Rain,Rain,20,2012-10-09 00:55:00
9:15 PM,44.2,41.9,91,30.24,10.0,Calm,Calm,-,N/A,,Light Drizzle,0,2012-10-09 01:15:00
9:35 PM,44.2,41.9,91,30.24,10.0,North,3.5,-,N/A,,Light Drizzle,350,2012-10-09 01:35:00
9:55 PM,44.2,41.9,91,30.25,10.0,NNW,3.5,-,N/A,,Light Drizzle,340,2012-10-09 01:55:00
10:15 PM,44.2,41.9,91,30.24,7.0,Calm,Calm,-,N/A,,Light Drizzle,0,2012-10-09 02:15:00
10:35 PM,44.4,41.9,91,30.23,5.0,Calm,Calm,-,N/A,,Drizzle,0,2012-10-09 02:35:00
10:55 PM,44.2,41.9,91,30.24,4.0,Calm,Calm,-,N/A,,Drizzle,0,2012-10-09 02:55:00
11:15 PM,44.1,41.9,92,30.24,5.0,Calm,Calm,-,N/A,,Light Drizzle,0,2012-10-09 03:15:00
11:55 PM,43.7,41.2,91,30.24,10.0,Calm,Calm,-,N/A,,Overcast,0,2012-10-09 03:55:00